Location: Unspecified
(0.0000°N, 0.0000°E)
Time: 12:43:57
(UTC+00:00)

BEESAT - Pass Details

Date: 30 May 2019
Orbit: 700 x 709 km, 98.6° (Epoch: 24 June)

Event Time Altitude Azimuth Distance (km) Brightness Sun altitude
Rises 03:40:16 0° 138° (SE) 3,096 ? -31.6°
Reaches altitude 10° 03:43:11 10° 119° (ESE) 2,176 ? -30.9°
Maximum altitude 03:46:22 18° 77° (ENE) 1,703 ? -30.2°
Drops below altitude 10° 03:49:32 10° 35° (NE) 2,172 ? -29.5°
Sets 03:52:26 0° 17° (NNE) 3,088 ? -28.8°
